User: anonymous   Login
Location: Unspecified
(0.0000°N, 0.0000°E)
Time: 18:53:13
(UTC+00:00)
Language:

Diapason D-1A - Orbit

View from above orbital plane
View from above orbital plane
View from above satellite
View from above satellite

Ground track
Ground track

The orbit data is extracted from the following two-line orbital elements,

1  2016U 66013A   17145.67238602 +.00000106 +00000-0 +34935-4 0  9992
2  2016 034.0885 222.6399 1187752 130.2682 240.8029 12.59494902322484
Epoch (UTC): 25 May 2017 16:08:14
Eccentricity: 0.1187752
inclination: 34.0885°
perigee height: 498 km
apogee height: 2352 km
right ascension of ascending node: 222.6399°
argument of perigee: 130.2682°
revolutions per day: 12.59494902
mean anomaly at epoch: 240.8029°
orbit number at epoch: 32248

The dashed part of the orbit path shows where the satellite is in the earth's shadow,  

DLR